N8QQ Weather Reports


Display with metric or nautical units.
time (UTC)temp
F
wind
direction
speed
MPH
gust
MPH
rain 1hr
in
rain 24hr
in
rain mn
in
humidity
%
barometer
mb
20260507215016 62 240 2.0 5.0 0.00 0.00 0.00 39 1009.4
20260507214059 63 256 4.0 8.0 0.00 0.00 0.00 39 1009.1
20260507213022 63 227 2.0 4.0 0.00 0.00 0.00 42 1009.5
20260507212025 64 190 3.0 5.0 0.00 0.00 0.00 40 1009.5
20260507211028 62 190 2.0 4.0 0.00 0.00 0.00 41 1009.4
20260507210032 60 163 3.0 5.0 0.00 0.00 0.00 42 1009.4
20260507205017 62 225 2.0 4.0 0.00 0.00 0.00 41 1009.1
20260507204021 62 157 2.0 4.0 0.00 0.00 0.00 42 1009.2
20260507203023 61 217 3.0 6.0 0.00 0.00 0.00 41 1009.1
20260507202026 62 234 3.0 6.0 0.00 0.00 0.00 40 1009.2
20260507201030 62 174 3.0 6.0 0.00 0.00 0.00 41 1009.2
20260507200015 61 128 3.0 6.0 0.00 0.00 0.00 41 1009.1
20260507195038 62 217 2.0 3.0 0.00 0.00 0.00 41 1009.5
20260507194022 62 235 2.0 5.0 0.00 0.00 0.00 41 1009.6
20260507193024 63 211 4.0 7.0 0.00 0.00 0.00 40 1009.6
20260507192032 62 214 2.0 6.0 0.00 0.00 0.00 42 1009.6
20260507191030 62 227 3.0 5.0 0.00 0.00 0.00 42 1009.7
20260507190015 60 53 4.0 6.0 0.00 0.00 0.00 42 1009.8
20260507185019 62 218 4.0 8.0 0.00 0.00 0.00 43 1009.6
20260507184022 61 137 3.0 4.0 0.00 0.00 0.00 43 1009.7
20260507183019 62 112 3.0 5.0 0.00 0.00 0.00 42 1009.8
20260507182017 61 65 2.0 4.0 0.00 0.00 0.00 43 1009.8
20260507181051 62 4 3.0 4.0 0.00 0.00 0.00 44 1010.0
20260507180016 61 258 5.0 7.0 0.00 0.00 0.00 41 1010.1
20260507175040 62 229 4.0 8.0 0.00 0.00 0.00 41 1010.2
20260507174023 61 138 3.0 5.0 0.00 0.00 0.00 42 1010.5
20260507173026 61 142 4.0 5.0 0.00 0.00 0.00 40 1010.5
20260507172049 62 279 4.0 10.0 0.00 0.00 0.00 42 1010.6
20260507171032 61 257 4.0 6.0 0.00 0.00 0.00 42 1010.6
20260507170019 61 188 3.0 6.0 0.00 0.00 0.00 43 1010.6
20260507165020 61 126 3.0 6.0 0.00 0.00 0.00 44 1010.8
20260507164044 60 247 6.0 10.0 0.00 0.00 0.00 41 1011.0
20260507163027 60 237 3.0 5.0 0.00 0.00 0.00 44 1011.0
20260507162050 59 244 2.0 4.0 0.00 0.00 0.00 45 1010.9
20260507161016 59 170 3.0 7.0 0.00 0.00 0.00 43 1010.9
20260507160018 58 162 4.0 6.0 0.00 0.00 0.00 44 1010.9
20260507155021 58 244 3.0 6.0 0.00 0.00 0.00 44 1011.0
20260507154024 58 245 3.0 6.0 0.00 0.00 0.00 44 1010.9
20260507153028 57 211 2.0 4.0 0.00 0.00 0.00 48 1010.9
20260507152024 57 218 3.0 6.0 0.00 0.00 0.00 45 1010.9
20260507151017 56 218 3.0 5.0 0.00 0.00 0.00 45 1010.9
20260507150019 56 238 5.0 8.0 0.00 0.00 0.00 44 1010.8
20260507145017 57 250 3.0 6.0 0.00 0.00 0.00 46 1010.6
20260507144025 57 228 3.0 6.0 0.00 0.00 0.00 46 1010.7
20260507143029 56 127 2.0 5.0 0.00 0.00 0.00 48 1010.7
20260507142032 56 114 3.0 4.0 0.00 0.00 0.00 46 1010.8
20260507141016 55 119 3.0 5.0 0.00 0.00 0.00 48 1010.8
20260507140041 56 219 4.0 5.0 0.00 0.00 0.00 46 1010.8
20260507135024 55 166 3.0 6.0 0.00 0.00 0.00 50 1010.7
20260507134047 55 239 2.0 6.0 0.00 0.00 0.00 51 1010.9
20260507133030 54 195 2.0 4.0 0.00 0.00 0.00 51 1010.8
20260507132032 53 231 3.0 5.0 0.00 0.00 0.00 52 1010.8
20260507131017 53 148 2.0 4.0 0.00 0.00 0.00 53 1010.7
20260507130020 53 82 2.0 3.0 0.00 0.00 0.00 54 1010.7
20260507125024 52 108 2.0 6.0 0.00 0.00 0.00 58 1010.8
20260507124026 49 247 2.0 3.0 0.00 0.00 0.00 67 1010.8
20260507123029 46 95 2.0 3.0 0.00 0.00 0.00 76 1010.9
20260507122053 43 204 1.0 3.0 0.00 0.00 0.00 85 1010.7
20260507121017 42 50 0.0 2.0 0.00 0.00 0.00 89 1010.8
20260507120021 41 247 1.0 2.0 0.00 0.00 0.00 91 1010.9
20260507115025 40 225 1.0 2.0 0.00 0.00 0.00 93 1010.8
20260507114021 40 241 0.0 2.0 0.00 0.00 0.00 94 1010.8
20260507113018 39 219 1.0 2.0 0.00 0.00 0.00 95 1010.8
20260507112035 39 0.0 0.0 0.00 0.00 0.00 96 1010.5
20260507111018 38 0.0 0.0 0.00 0.00 0.00 97 1010.4
20260507110022 38 0.0 0.0 0.00 0.00 0.00 97 1010.3
20260507105025 38 0.0 0.0 0.00 0.00 0.00 97 1010.2
20260507104028 38 0.0 0.0 0.00 0.00 0.00 97 1010.2
20260507103032 38 0.0 0.0 0.00 0.00 0.00 97 1010.2
20260507102036 38 0.0 0.0 0.00 0.00 0.00 97 1010.2
20260507101019 38 0.0 0.0 0.00 0.00 0.00 97 1010.2
20260507100023 38 0.0 0.0 0.00 0.00 0.00 97 1010.2
20260507095025 38 0.0 0.0 0.00 0.00 0.00 97 1010.2
20260507094028 39 0.0 0.0 0.00 0.00 0.00 97 1010.2
20260507093031 39 0.0 0.0 0.00 0.00 0.00 97 1010.2
20260507092018 39 0.0 0.0 0.00 0.00 0.00 97 1009.9
20260507091020 39 0.0 0.0 0.00 0.00 0.00 97 1009.8
20260507090023 40 0.0 0.0 0.00 0.00 0.00 98 1009.8
20260507085026 40 0.0 0.0 0.00 0.00 0.00 98 1009.7
20260507084030 40 0.0 0.0 0.00 0.00 0.00 98 1009.9
20260507083015 40 0.0 0.0 0.00 0.00 0.00 98 1009.6
20260507082019 40 0.0 0.0 0.00 0.00 0.00 98 1009.6
20260507081041 40 0.0 0.0 0.00 0.01 0.00 98 1009.7
20260507080018 40 0.0 0.0 0.00 0.01 0.00 98 1009.7
20260507075016 40 0.0 0.0 0.00 0.02 0.00 98 1009.7
20260507074031 41 0.0 0.0 0.00 0.02 0.00 98 1009.7
20260507073035 41 0.0 0.0 0.00 0.03 0.00 98 1009.7
20260507072018 41 0.0 0.0 0.00 0.05 0.00 98 1009.7
20260507071021 41 0.0 0.0 0.00 0.06 0.00 98 1009.6
20260507070024 41 0.0 0.0 0.00 0.06 0.00 98 1009.6
20260507065029 41 0.0 0.0 0.00 0.09 0.00 97 1009.7
20260507064031 42 0.0 0.0 0.00 0.10 0.00 98 1009.9
20260507063016 42 0.0 0.0 0.00 0.11 0.00 98 1009.9
20260507062019 42 0.0 0.0 0.00 0.11 0.00 97 1009.9
20260507061022 41 0.0 0.0 0.00 0.12 0.00 96 1009.9
20260507060025 42 0.0 0.0 0.00 0.12 0.00 96 1009.9
20260507055029 42 0.0 0.0 0.00 0.14 0.00 96 1010.0
20260507054031 42 0.0 0.0 0.00 0.16 0.00 95 1010.0
20260507053018 42 0.0 0.0 0.00 0.18 0.00 95 1010.1
20260507052040 42 0.0 0.0 0.00 0.21 0.00 95 1010.0
20260507051023 42 0.0 0.0 0.00 0.22 0.00 94 1010.0
20260507050026 42 0.0 0.0 0.00 0.26 0.00 94 1010.0
20260507045023 42 0.0 0.0 0.00 0.29 0.00 94 1010.1
20260507044022 42 0.0 0.0 0.00 0.30 0.00 95 1010.2
20260507043039 42 0.0 0.0 0.00 0.32 0.00 94 1010.0
20260507042015 43 0.0 0.0 0.00 0.32 0.00 93 1010.0
20260507041024 43 0.0 0.0 0.00 0.36 0.00 93 1009.9
20260507040028 43 0.0 0.0 0.00 0.38 0.00 93 1009.9
20260507035030 43 0.0 0.0 0.00 0.38 0.38 92 1009.9
20260507034032 44 0.0 0.0 0.00 0.40 0.38 92 1010.0
20260507033018 44 0.0 0.0 0.00 0.42 0.38 92 1009.9
20260507032021 44 0.0 0.0 0.00 0.42 0.38 91 1009.9
20260507031024 45 0.0 0.0 0.00 0.42 0.38 91 1010.0
20260507030047 45 0.0 0.0 0.00 0.42 0.38 91 1010.1
20260507025052 45 0.0 0.0 0.00 0.42 0.38 88 1010.0
20260507024036 45 0.0 0.0 0.00 0.43 0.38 86 1010.0
20260507023019 46 0.0 0.0 0.00 0.44 0.38 86 1009.9
20260507022042 46 0.0 0.0 0.00 0.44 0.38 84 1009.8
20260507021026 47 0.0 0.0 0.00 0.44 0.38 84 1009.8
20260507020029 48 0.0 0.0 0.00 0.44 0.38 82 1009.8
20260507015032 48 0.0 0.0 0.00 0.46 0.38 80 1009.7
20260507014018 49 0.0 0.0 0.00 0.48 0.38 76 1009.5
20260507013021 50 0.0 0.0 0.00 0.48 0.38 73 1009.4
20260507012023 51 0.0 0.0 0.00 0.48 0.38 69 1009.2
20260507011021 52 0.0 0.0 0.00 0.50 0.38 67 1009.2
20260507010022 52 0.0 0.0 0.00 0.52 0.38 66 1009.3
20260507005032 53 0.0 0.0 0.00 0.55 0.38 65 1009.1
20260507004037 54 0.0 0.0 0.00 0.58 0.38 64 1009.1
20260507003021 54 0.0 0.0 0.00 0.59 0.38 63 1008.8
20260507002044 55 0.0 0.0 0.00 0.59 0.38 62 1008.8
20260507001027 55 0.0 0.0 0.00 0.59 0.38 62 1008.8
20260507000031 56 110 0.0 2.0 0.00 0.60 0.38 61 1008.8
20260506235015 0 270 4.0 4.0 0.00 0.60 0.38 1008.5
20260506234018 56 112 1.0 4.0 0.00 0.60 0.38 62 1008.6
20260506233022 56 130 2.0 5.0 0.00 0.60 0.38 60 1008.6
20260506232045 57 217 2.0 4.0 0.00 0.61 0.38 59 1008.3
20260506231048 58 156 2.0 4.0 0.00 0.62 0.38 58 1008.2
20260506230032 59 125 2.0 4.0 0.00 0.62 0.38 58 1008.2
20260506225017 59 249 1.0 3.0 0.00 0.62 0.38 59 1008.3
20260506224020 58 240 3.0 5.0 0.00 0.62 0.38 58 1008.2
20260506223023 57 238 1.0 2.0 0.00 0.62 0.38 59 1008.5
20260506222028 58 188 2.0 3.0 0.00 0.62 0.38 58 1008.8
20260506221029 58 180 0.0 4.0 0.00 0.62 0.38 60 1008.8
20260506220015 58 152 1.0 6.0 0.00 0.62 0.38 59 1008.7